This demonstration page uses our WeatherBlox Daily Observations layout. Learn more.

Left ArrowRight Arrow

34.74481, -87.66753

Hourly Observations for November 29, 2022

Temp ( °F °C ) Dew Point ( °F °C ) Humidity (%) Winds ( mph kmh ) Pressure ( in mb ) Visibility ( mi km ) Precip ( " mm )
12:53 am 00:53 Clear 43 6.1 40 4.4 89 89 ESE 6 9 30.00 1016 10 16 0.00 0.00
1:53 am 01:53 Clear 41 5 38 3.3 89 89 E 6 9 30.00 1016 10 16 0.00 0.00
2:53 am 02:53 Clear 42 5.6 39 3.9 89 89 E 5 7 29.99 1016 10 16 0.00 0.00
3:53 am 03:53 Clear 41 5 39 3.9 93 93 E 7 11 29.99 1016 10 16 0.00 0.00
4:53 am 04:53 Clear 44 6.7 41 5 89 89 SE 7 11 29.99 1016 10 16 0.00 0.00
5:53 am 05:53 Clear 43 6.1 40 4.4 89 89 E 5 7 30.01 1016 10 16 0.00 0.00
6:53 am 06:53 Sunny 44 6.7 41 5 89 89 ESE 5 7 30.03 1017 10 16 0.00 0.00
1:01 pm 13:01 Mostly Cloudy with Strong Thunderstorms 66 18.9 58 14.4 75 75 SSE 17 28 29.81 1009 3 4 0.05 1.27
1:31 pm 13:31 Mostly Cloudy with Thunderstorms 63 17.2 59 15 87 87 WNW 14 22 29.85 1011 10 16 0.15 3.81
1:39 pm 13:39 Windy with Storms Likely 64 17.8 59 15 84 84 W 23 37 29.90 1013 4 6 0.22 5.59
1:41 pm 13:41 Mostly Cloudy with Strong Thunderstorms 63 17.2 58 14.4 84 84 W 24 39 29.88 1012 2 3 0.33 8.38
1:59 pm 13:59 Cloudy with Thunderstorms 60 15.6 58 14.4 93 93 Calm 29.86 1011 3 5 0.01 0.25
2:07 pm 14:07 Cloudy with Strong Thunderstorms 60 15.6 58 14.4 93 93 VRB 5 7 29.87 1011 4 6 0.06 1.52
2:13 pm 14:13 Cloudy with Strong Thunderstorms 60 15.6 58 14.4 93 93 VRB 5 7 29.86 1011 2 2 0.15 3.81
3:04 pm 15:04 Cloudy with Nearby Thunderstorms 60 15.6 58 14.4 93 93 ESE 5 7 29.85 1011 6 10 0.01 0.25
3:10 pm 15:10 Cloudy with Light Rain 60 15.6 59 15 96 96 Calm 29.84 1010 8 13 0.01 0.25
3:22 pm 15:22 Cloudy 60 15.6 59 15 96 96 ESE 6 9 29.83 1010 9 14 0.02 0.51
3:42 pm 15:42 Cloudy with Thunderstorms 60 15.6 59 15 96 96 ESE 7 11 29.82 1010 10 16 0.03 0.76
3:53 pm 15:53 Cloudy with Strong Thunderstorms 61 16.1 59 15 93 93 E 5 7 29.82 1010 2 3 0.10 2.54
4:00 pm 16:00 Cloudy with Thunderstorms 61 16.1 59 15 93 93 E 6 9 29.82 1010 3 5 0.01 0.25
4:11 pm 16:11 Cloudy with Thunderstorms 61 16.1 59 15 93 93 NW 10 17 29.87 1011 3 5 0.08 2.03
4:26 pm 16:26 Cloudy with Thunderstorms 61 16.1 60 15.6 97 97 VRB 3 6 29.86 1011 4 6 0.16 4.06
4:47 pm 16:47 Cloudy with Nearby Thunderstorms 63 17 61 16 94 94 ESE 10 17 29.83 1010 6 10 0.17 4.32
4:53 pm 16:53 Cloudy with Light Rain 62 16.7 60 15.6 93 93 SE 10 17 29.81 1010 7 11 0.18 4.57
5:05 pm 17:05 Cloudy with Light Rain 63 17.2 61 16.1 93 93 SE 14 22 29.80 1009 10 16 0.01 0.13
5:53 pm 17:53 Mostly Clear 63 17.2 60 15.6 90 90 E 6 9 29.80 1009 10 16 0.01 0.13
6:12 pm 18:12 Mostly Clear with Thunderstorms 63 17.2 60 15.6 90 90 SE 8 13 29.79 1009 10 16 0.00 0.00
6:27 pm 18:27 Partly Cloudy with Nearby Thunderstorms 62 16.7 60 15.6 93 93 SSE 8 13 29.81 1010 10 16 0.00 0.00
6:35 pm 18:35 Partly Cloudy 62 16.7 60 15.6 93 93 SE 9 15 29.81 1009 10 16 0.00 0.00
6:53 pm 18:53 Mostly Cloudy 63 17.2 60 15.6 90 90 SSE 9 15 29.80 1009 10 16 0.00 0.00
7:53 pm 19:53 Mostly Cloudy 64 17.8 61 16.1 90 90 S 8 13 29.80 1009 10 16 0.01 0.25
8:53 pm 20:53 Mostly Cloudy 64 17.8 61 16.1 90 90 SSE 9 15 29.78 1009 10 16 0.01 0.13
9:42 pm 21:42 Mostly Cloudy 65 18.3 62 16.7 90 90 SSE 9 15 29.78 1009 10 16 0.01 0.25
9:53 pm 21:53 Mostly Cloudy with Light Rain 65 18.3 62 16.7 90 90 S 13 20 29.79 1009 10 16 0.01 0.25
10:19 pm 22:19 Cloudy with Light Rain 66 18.9 63 17.2 90 90 S 13 20 29.78 1008 4 6 0.07 1.78
10:53 pm 22:53 Cloudy with Nearby Thunderstorms 65 18.3 63 17.2 93 93 SE 12 19 29.75 1008 10 16 0.10 2.54
11:01 pm 23:01 Cloudy with Thunderstorms 65 18.3 63 17.2 93 93 SE 12 19 29.76 1008 6 10 0.03 0.76
11:16 pm 23:16 Cloudy with Nearby Thunderstorms 65 18.3 64 17.8 97 97 SSE 13 20 29.75 1008 3 4 0.14 3.56
11:23 pm 23:23 Cloudy with Nearby Thunderstorms 66 18.9 64 17.8 93 93 VRB 7 11 29.78 1008 3 5 0.18 4.57
11:28 pm 23:28 Cloudy with Nearby Thunderstorms 66 18.9 64 17.8 93 93 undefined N/A 29.85 1011 1 2 0.49 12.45
11:30 pm 23:30 Cloudy with Strong Thunderstorms 65 18.3 64 17.8 97 97 undefined N/A 29.81 1010 1 1 0.69 17.53
11:44 pm 23:44 Cloudy with Strong Thunderstorms 62 16.7 60 15.6 93 93 S 8 13 29.78 1009 1 2 1.24 31.50
11:53 pm 23:53 Cloudy with Thunderstorms 62 16.7 60 15.6 93 93 SSE 9 15 29.76 1008 4 6 1.27 32.26

Powered by AerisWeather